Showing default

EXPLORER 29 (GEOS 1), 1726

Orbit data source: Space-Track

EXPLORER 29 (GEOS 1), 1726 is a payload satellite owned by GSFC (US) in LEO that was launched on Sat, 06 Nov 1965 UTC via a THOR DELTA E launch vehicle from the Air Force Eastern Test Range (AFETR). Payloads include a variety of satellites, spacecraft, and rockets equipped with specific instruments for various scientific and technological missions. These include communications satellites like Starlink; space stations such as the ISS; scientific satellites like the Hubble; Earth observation satellites from companies like Planet Labs, Umbra, and HawkEye 360; GPS; miniature CubeSats for education and research; and military/defense satellites.

Loading next visibility...
EXPLORER 29 (GEOS 1) details
Identifier
1726, 1965-089A
Orbit
LEO
Last TLE update12 hours ago
Origin
Flag of USGSFC (US)
ManufacturerAPL
MissionCivil Geodetic
Bus & MotorANNA, Unknown motor
Mass176 kg wet, 176 kg dry
Launch date (UTC)
1965-11-06 (59 years ago)
Launch vehicle
THOR DELTA E
Launch site
Air Force Eastern Test Range (AFETR)
Object type
Payload
Rocket body
Debris
Shape & HBROct Cyl + 1 Dome + 1 Rod, 15 m
Radar Cross Section1.519 m², Large (>1 m²)

Expand to show TLE details & history

TLE from 12 hours ago
0 EXPLORER 29 (GEOS 1)
1  1726U 65089A   25037.56871977 -.00000070  00000-0  18274-4 0  9995
2  1726  59.3847  63.1816 0712272 256.9146 278.3240 11.97073209590709
Epoch: 2025-02-06T13:38Z
Definitive object data (Epoch: 2025-02-06T13:38:57.388Z)
Latitude11.0707°
Longitude-105.1177°
Altitude1,651.913 km
Speed7.067 km/s
True Right ascension15h 46m 15s
True Declination11° 00' 48"
Sunlit
Object was in daylight at TLE epoch
Visualization TLE readout
Latitude2.27288°
Longitude-100.9716°
Altitude1,555.61 km
Speed7.151 km/s
Apparent Right ascension15h 59m 10s
Apparent Declination-16° 19' 59"
Sunlit
Object is in daylight
Visualization observer readout
Local Sidereal Time03:53:14
Azimuth356.441° N
Elevation-66.382°
Doppler factor1
Orbital elements
Apogee altitude2,268.298 km
Perigee altitude1,118.474 km
Semi-major axis8,071.523 km
Eccentricity0.0712272
Inclination59.3847°
RAAN63.1816°
Arg. of periapsis256.9146°
True anomaly270.1702°
Mean anomaly278.324°
Eccentric anomaly274.25423°
Mean motion2.99302 °/min
BSTAR0.000018274
Orbital period120.28 mins
Loading maneuver chart data...
Loading historical data...
Loading historical data...
Loading historical data...
Loading historical data...
Loading historical data...
Loading historical data...
Loading historical data...

EXPLORER 29 (GEOS 1) Visibility forecast

Observer location: undefined°, undefined

Span
Click to sort rows by Start time (UTC) header in descending order
Start Az.
Max El. time (UTC)
Max El. Az.
Max El.
End time (UTC)
End Az.
23 mins2025-02-07 02:43:56.886Z190.1° SSW2025-02-07 02:54:56.886Z112.941° SE39.329°2025-02-07 03:06:56.886Z45.895° ENE
23 mins2025-02-07 04:49:56.886Z244.417° WSW2025-02-07 05:00:56.886Z325.383° NNW40.63°2025-02-07 05:12:56.886Z38.3° NE
21 mins2025-02-07 06:59:56.886Z292.152° WNW2025-02-07 07:09:56.886Z349.004° N28.674°2025-02-07 07:20:56.886Z48.822° ENE
20 mins2025-02-07 09:09:56.886Z319.323° NNW2025-02-07 09:19:56.886Z15.971° NNE30.641°2025-02-07 09:29:56.886Z79.59° E
22 mins2025-02-07 11:16:56.886Z321.277° NNW2025-02-07 11:28:56.886Z62.818° ENE43.908°2025-02-07 11:38:56.886Z131.565° SE
18 mins2025-02-07 13:23:56.886Z305.634° NW2025-02-07 13:32:56.886Z252.421° W30.057°2025-02-07 13:41:56.886Z189.295° SSW
10 mins2025-02-08 00:50:56.886Z123.499° SE2025-02-08 00:54:56.886Z102.166° ESE14.467°2025-02-08 01:00:56.886Z72.568° E
|